www.pogodaiklimat.ru

Погода и климат >> Архив погоды >> Россия >> Хакасия >> Аскиз


ПОГОДА в Аскизе

  • Прогноз погоды в Аскизе
  • Монитор погоды в Аскизе

АРХИВ ПОГОДЫ в Аскизе

Время (UTC), дата Ветер
(напр.,м/с)
 
Видим.   Явления Облачность Т
(С)
Тd
(С)
f
(%)
Тe
(С)
Тes
(С)
Комфортность P
(гПа)
Po
(гПа)
Тmin
(С)
Tmax
(С)
R
(мм)
R24
(мм)
S
(см)
18 14.05 СЗ 1 н/о н/о -1.4 -2.5 92 -4 1013.3 968.0
21 14.05 СЗ 1 н/о н/о -1.9 -3.2 91 -4 1010.6 965.3
00 15.05 В 1 н/о н/о 0.0 -1.9 87 -2 -2 1007.6 962.7 -2.6 2
03 15.05 СВ 5 н/о н/о +4.3 -1.1 68 -0 1008.2 964.0
06 15.05 С 3 н/о н/о +5.1 -3.2 55 +2 1009.4 965.3
09 15.05 Ю 1 н/о н/о +6.3 -0.9 60 +6 1012.0 968.0
12 15.05 З 2
{10}
н/о н/о +5.5 -0.6 65 +3 +3 1013.6 969.4 +6.6 0.0
15 15.05 штиль 0 н/о н/о +2.1 -0.8 81 +1 1018.3 973.3
18 15.05 З 3 н/о н/о +3.1 -1.3 73 -1 1019.6 974.7
21 15.05 З 2 н/о н/о +2.6 -1.7 73 -0 1019.6 974.7
00 16.05 З 3 н/о н/о +3.1 -1.4 72 -1 -1 1020.5 975.6 -0.4
03 16.05 ЮЗ 3 н/о н/о +6.7 -1.2 57 +4 1021.7 977.3
06 16.05 З 2 н/о н/о +7.8 -1.2 53 +6 1021.5 977.3
09 16.05 С 4 н/о н/о +5.7 +0.1 67 +2 1021.8 977.3
12 16.05 Ю 3 н/о н/о +7.3 +0.2 61 +5 +5 1021.1 976.8 +8.9 0.5
15 16.05 З 1 н/о н/о +3.2 -0.8 75 +2 1023.7 978.7
18 16.05 СВ 1 н/о н/о -1.4 -2.5 92 -4 1024.5 978.7
21 16.05 штиль 0 н/о н/о -1.7 -2.4 95 -3 1024.6 978.7
00 17.05 штиль 0 н/о н/о -0.8 -1.9 92 -2 -2 1023.9 978.2 -2.7
03 17.05 Ю 3 н/о н/о +7.0 +1.1 66 +4 1023.1 978.7
06 17.05 С 3 н/о н/о +9.5 -2.5 43 +8 1022.7 978.7
09 17.05 ЮВ 6 н/о н/о +9.0 +1.4 59 +6 1022.8 978.7
12 17.05 ЮВ 3 н/о н/о +8.4 +0.6 58 +6 +6 1023.4 979.1 +11.5 0.8
15 17.05 СЗ 1 н/о н/о +3.3 +0.5 82 +2 1026.4 981.3
18 17.05 СВ 1 н/о н/о -0.6 -1.7 92 -3 1028.6 982.7
21 17.05 СВ 1 н/о н/о -1.5 -3.1 89 -4 1027.3 981.3
00 18.05 З 2 н/о н/о +0.7 -2.1 82 -3 -3 1026.9 981.3 -1.7
03 18.05 ЮЗ 2 н/о н/о +9.0 -0.1 53 +8 1025.5 981.3
06 18.05 ЮЗ 2 н/о н/о +12.8 -4.8 29 +13 1022.2 978.7
09 18.05 ЮВ 2 н/о н/о +15.3 -6.3 22 +15 1019.0 976.0
12 18.05 СВ 1 н/о н/о +14.6 -4.2 27 +15 +15 1016.0 973.0 +15.9
15 18.05 штиль 0 н/о н/о +10.5 -1.9 42 +10 1016.9 973.3
18 18.05 З 1 н/о н/о +4.8 -0.2 70 +4 1016.5 972.0
21 18.05 СЗ 1 н/о н/о +2.4 -1.8 74 +1 1016.9 972.0
00 19.05 штиль 0 н/о н/о +5.2 -1.2 63 +5 +5 1015.3 970.9 +2.2
03 19.05 ЮВ 1 н/о н/о +13.7 +1.7 44 +14 1013.7 970.7
06 19.05 ЮВ 1 н/о н/о +20.0 -1.2 24 +21 1009.9 968.0
09 19.05 Ю 3 н/о н/о +25.6 -3.9 14 +23 1006.3 965.3
12 19.05 СЗ 4 н/о н/о +25.9 -6.1 12 +23 +23 комфорт 1005.7 964.7 +27.6
15 19.05 СЗ 1 н/о н/о +14.1 +2.3 45 +15 1009.4 966.7
18 19.05 СЗ 2 н/о н/о +12.0 +2.7 53 +11 1011.1 968.0
21 19.05 СЗ 2 н/о н/о +7.8 +1.4 64 +6 1011.8 968.0
00 20.05 СВ 2 н/о н/о +9.5 +2.8 63 +8 +8 1011.4 967.9 +7.0
03 20.05 Ю 4 н/о н/о +16.8 +5.7 48 +16 1011.7 969.3
06 20.05 ЮЗ 5 н/о н/о +19.5 +7.9 47 +20 1009.9 968.0
09 20.05 ЮЗ 6 н/о н/о +23.1 +5.9 33 +24 1008.1 966.7
12 20.05 З 2
{21}
н/о н/о +15.4 +11.2 76 +15 +15 1009.8 967.3 +24.1 2
15 20.05 ЮВ 2 н/о н/о +13.8 +9.8 77 +13 1010.8 968.0
18 20.05 СЗ 1 н/о н/о +10.7 +7.9 83 +10 1007.1 964.0
21 20.05 З 1 н/о н/о +9.9 +7.7 86 +9 1005.8 962.7
00 21.05 ЮЗ 3 н/о н/о +11.6 +8.6 82 +10 +10 1002.8 960.1 +9.2
03 21.05 Ю 4 н/о н/о +16.7 +9.4 62 +16 1002.0 960.0
06 21.05 СЗ 6 н/о н/о +20.7 +10.8 53 +22 1001.4 960.0
09 21.05 З 3 н/о н/о +16.3 +9.9 66 +16 1003.4 961.3
12 21.05 З 3 н/о н/о +12.8 +8.9 77 +11 +11 1006.1 963.4 +20.8 4
15 21.05 ЮЗ 11 н/о н/о +11.0 +6.5 74 +7 1007.0 964.0

 

Местоположение метеостанции Аскиз (Хакасия, Россия): широта 53.13 долгота 90.48 высота над уровнем моря 366 м.

В архиве по умолчанию представлена погода в Аскизе за последнюю неделю. Архивные данные за месяц целиком и за предыдущие месяцы, начиная с января 2011 года, Вы можете получить, выбрав интересующий диапазон дат из раскрывающегося списка и нажав кнопку "Ввод!".


*Определитесь, кто Вы:
робот инопланетянин человек

Внимание! Время в таблицах - всемирное. Для получения местного времени необходимо прибавить поправку, которая равна 7 ч.

Смотрите также архив погоды в соседних городах и на ближайших метеорологических станциях:

Погода в Бее (Хакасия, Россия) (31 км)
Погода в Таштыпе (Хакасия, Россия) (54 км)
Погода в Саяногорске (Хакасия, Россия) (64 км)
Погода в Уйбате (Хакасия, Россия) (66 км)
Погода в Карловом Створе (Хакасия, Россия) (68 км)
Погода в Черемушках (Хакасия, Россия) (69 км)
Погода в Мантуре (Хакасия, Россия) (86 км)
Погода в Хакасской (Хакасия, Россия) (90 км)
Погода в Неожиданном (Хакасия, Россия) (95 км)
Погода в Кантегире (Хакасия, Россия) (97 км)

Пояснения к столбцам:

Ветер - указаны скорость ветра в м/с - средняя за 10 мин, порывы в срок и между сроками (в фигурных скобках) и направление, откуда дует ветер: С - северный, СВ - северо-восточный, В - восточный, ЮВ - юго-восточный, Ю - южный, ЮЗ - юго-западный, З - западный, СЗ - северо-западный.
Видимость - горизонтальная дальность видимости в метрах или километрах. При видимости от 1 до 10 км при отсутствии осадков обычно наблюдается дымка, при ухудшении видимости до 1 км и менее - туман. В сухую погоду видимость может ухудшаться дымом, пылью или мглою.
Явления - указаны атмосферные явления, наблюдавшиеся в срок или в последний час перед сроком; фигурными скобками обозначены явления, наблюдавшиеся между сроками (за 1-3 часа до срока); квадратными скобками обозначены град или гололедные отложения с указанием их диаметра в мм.
Облачность - указаны через наклонную черту общая и нижняя облачность в баллах и высота нижней границы облаков в метрах; квадратными скобками обозначены формы облаков: Ci - перистые, Cs - перисто-слоистые, Cc - перисто-кучевые, Ac - высококучевые, As - высокослоистые, Sc - слоисто-кучевые, Ns - слоисто-дождевые, Cu - кучевые, Cb - кучево-дождевые. Подробнее классификацию облаков см. в Атласе облаков (PDF).
T - Температура воздуха - температура, измеренная на высоте 2 м над землей.
Td - Температура точки росы - температура, при понижении до которой содержащийся в воздухе водяной пар достигнет насыщения.
f - Относительная влажность воздуха - влажноcть воздуха, измеренная на высоте 2 м над землей.
Te - Эффективная температура - температура, которую ощущает одетый по сезону человек в тени. Характеристика душности погоды. При расчете учитывается влияние влажности воздуха и скорости ветра на теплоощущения человека.
Tes - Эффективная температура на солнце - температура, которую ощущает человек, с поправкой на солнечный нагрев. Характеристика знойности погоды. Зависит от высоты солнца над горизонтом, облачности и скорости ветра. Ночью, в пасмурную погоду, а также при ветре 12 м/с и более поправка равна нулю.
P - Атмосферное давление - приведенное к уровню моря атмосферное давление.
Po - Атмосферное давление - измеренное на уровне метеостанции атмосферное давление.
Tmin - Минимальная температура - минимум температуры воздуха на высоте 2 м над землей.
Tmax - Максимальная температура - максимум температуры воздуха на высоте 2 м над землей.
R - Количество осадков - Количество выпавших осадков за период времени, мм. При наведении курсора мыши на число - период времени, за который выпало указанное количество осадков.
R24 - Количество осадков - Количество выпавших осадков за 24 часа, мм.
S - Снежный покров - Высота снежного покрова, см. При наведении курсора мыши на число - состояние снежного покрова и степень покрытия местности в баллах.